Location: Grandview
(34.8900°N, 117.1058°W)
Time: 14:58:25
(UTC-07:00)

Tiangong 1 - Pass Details

Date: 11 October 2017
Orbit: 293 x 320 km, 42.8° (Epoch: 19 October)

Event Time Altitude Azimuth Distance (km) Brightness Sun altitude
Rises 19:34:35 0° 302° (WNW) 2,034 5.8 -16.4°
Reaches altitude 10° 19:36:59 10° 324° (NW) 1,198 4.1 -16.9°
Enters shadow 19:38:43 17° 4° (N) 877 2.8 -17.3°
